Fort Indiantown Gap, PA

11:42 AM EST on December 14, 2019 (GMT -0500)
Muir Army Air Field

Weather History for KMUI - October, 2019

Change the Weather History Date:

Thursday, October 3, 2019

  Actual Average Record
Temperature  
Mean Temperature 62 °F -  
Max Temperature 67 °F 66 °F 84 °F (2002)
Min Temperature 54 °F 47 °F 35 °F (2003)
Degree Days  
Heating Degree Days 4    
Growing Degree Days 12 (Base 50)    
Moisture  
Dew Point 59 °F    
Average Humidity 94    
Maximum Humidity 100    
Minimum Humidity 83    
Precipitation  
Precipitation 0.29 in - - ()
Sea Level Pressure  
Sea Level Pressure 30.01 in    
Wind  
Wind Speed 6 mph (ENE)    
Max Wind Speed 14 mph    
Max Gust Speed 20 mph    
Visibility 6 miles    
Events Rain    
Averages and records for this station are not official NWS values.
T = Trace of Precipitation, MM = Missing Value Source: NWS Daily Summary

Daily Weather History Graph

Daily Weather History Graph

Search for Another Location

Airport or City:

Astronomy

Oct. 03, 2019 Rise Set
Actual Time 7:04 AM EDT 6:45 PM EDT
Civil Twilight 6:37 AM EDT 7:12 PM EDT
Nautical Twilight 6:05 AM EDT 7:44 PM EDT
Astronomical Twilight 5:33 AM EDT 8:16 PM EDT
Moon 12:34 PM EDT (10/3) 10:22 PM EDT (10/3)
Length of Visible Light 12h 35m
Length of Day
11h 41m
Waxing Crescent, 29% of the Moon is Illuminated
Oct 3
Waxing Crescent
Oct 5
First Quarter
Oct 13
Full
Oct 21
Last Quarter
Oct 27
New

Hourly Weather History & Observations

Time (EDT) Temp. Dew Point Humidity Pressure Visibility Wind Dir Wind Speed Gust Speed Precip Events Conditions
12:12 AM 69.8 °F 64.4 °F 83% 29.96 in 10.0 mi NNE 4.6 mph - N/A   Light Drizzle
12:20 AM 69.8 °F 64.4 °F 83% 29.96 in 10.0 mi NE 6.9 mph - N/A   Light Drizzle
12:36 AM 68.0 °F 64.4 °F 88% 29.96 in 10.0 mi NE 6.9 mph - N/A   Light Drizzle
12:40 AM 68.0 °F 64.4 °F 88% 29.96 in 10.0 mi NE 5.8 mph - N/A   Overcast
12:49 AM 68.0 °F 64.4 °F 88% 29.96 in 10.0 mi NE 4.6 mph - N/A   Light Drizzle
12:54 AM 68.0 °F 64.4 °F 88% 29.96 in 9.0 mi NNE 5.8 mph - N/A Rain Light Rain
12:56 AM 67.5 °F 63.7 °F 88% 29.96 in 9.0 mi NE 5.8 mph - 0.01 in Rain Light Rain
1:04 AM 66.2 °F 64.4 °F 94% 29.96 in 6.0 mi NE 6.9 mph - N/A Rain Light Rain
1:12 AM 66.2 °F 64.4 °F 94% 29.96 in 5.0 mi ENE 4.6 mph - N/A Rain Light Rain
1:28 AM 66.2 °F 64.4 °F 94% 29.96 in 8.0 mi ENE 5.8 mph - N/A   Light Drizzle
1:35 AM 66.2 °F 64.4 °F 94% 29.96 in 10.0 mi ENE 4.6 mph - N/A   Overcast
1:56 AM 65.5 °F 64.0 °F 95% 29.97 in 10.0 mi NNE 3.5 mph - 0.06 in   Overcast
2:44 AM 64.4 °F 62.6 °F 94% 29.97 in 10.0 mi ENE 4.6 mph - N/A   Overcast
2:56 AM 65.1 °F 62.8 °F 92% 29.97 in 10.0 mi NNE 5.8 mph - N/A   Overcast
3:23 AM 64.4 °F 62.6 °F 94% 29.97 in 10.0 mi NE 5.8 mph - N/A   Light Drizzle
3:36 AM 64.4 °F 62.6 °F 94% 29.97 in 10.0 mi NNE 3.5 mph - N/A   Light Drizzle
3:52 AM 64.4 °F 62.6 °F 94% 29.98 in 9.0 mi ENE 4.6 mph - N/A   Light Drizzle
3:56 AM 64.4 °F 62.6 °F 94% 29.98 in 10.0 mi ENE 5.8 mph - 0.01 in   Light Drizzle
4:09 AM 64.4 °F 62.6 °F 94% 29.98 in 10.0 mi East 8.1 mph - N/A   Overcast
4:25 AM 64.4 °F 60.8 °F 88% 29.99 in 10.0 mi East 13.8 mph 19.6 mph N/A   Overcast
4:39 AM 62.6 °F 60.8 °F 94% 29.99 in 10.0 mi East 10.4 mph - N/A Rain Light Rain
4:56 AM 62.6 °F 60.3 °F 92% 29.99 in 5.0 mi East 6.9 mph - 0.01 in   Light Drizzle
5:03 AM 62.6 °F 60.8 °F 94% 29.99 in 7.0 mi NE 4.6 mph - N/A   Overcast
5:11 AM 62.6 °F 60.8 °F 94% 30.00 in 10.0 mi Calm Calm - N/A   Overcast
5:25 AM 62.6 °F 60.8 °F 94% 30.01 in 10.0 mi Calm Calm - N/A   Light Drizzle
5:32 AM 62.6 °F 60.8 °F 94% 30.01 in 10.0 mi ENE 10.4 mph - N/A   Light Drizzle
5:40 AM 62.6 °F 60.8 °F 94% 30.02 in 8.0 mi ENE 5.8 mph - N/A Rain Light Rain
5:49 AM 62.6 °F 60.8 °F 94% 30.02 in 9.0 mi ENE 12.7 mph 18.4 mph N/A   Overcast
5:56 AM 61.2 °F 59.2 °F 93% 30.02 in 10.0 mi East 9.2 mph 18.4 mph 0.01 in   Overcast
6:08 AM 60.8 °F 59.0 °F 94% 30.03 in 10.0 mi ENE 9.2 mph - N/A Rain Light Rain
6:24 AM 59.0 °F 57.2 °F 94% 30.03 in 6.0 mi East 9.2 mph - N/A Rain Light Rain
6:32 AM 59.0 °F 57.2 °F 94% 30.03 in 5.0 mi East 10.4 mph - N/A Rain Light Rain
6:56 AM 58.6 °F 56.8 °F 94% 30.05 in 9.0 mi ENE 8.1 mph - 0.04 in Rain Light Rain
7:24 AM 57.2 °F 55.4 °F 94% 30.06 in 10.0 mi ENE 6.9 mph - N/A   Overcast
7:56 AM 57.4 °F 55.6 °F 94% 30.07 in 10.0 mi ENE 8.1 mph - 0.02 in   Overcast
7:57 AM 57.2 °F 55.4 °F 94% 30.07 in 9.0 mi ENE 9.2 mph - N/A Rain Light Rain
8:55 AM 56.3 °F 54.3 °F 93% 30.09 in 8.0 mi ENE 9.2 mph - 0.05 in Rain Light Rain
9:56 AM 55.8 °F 53.8 °F 93% 30.10 in 10.0 mi ENE 6.9 mph - 0.03 in Rain Light Rain
10:56 AM 55.0 °F 53.1 °F 93% 30.09 in 6.0 mi Variable 6.9 mph - 0.02 in Rain Light Rain
11:27 AM 55.4 °F 53.6 °F 94% 30.09 in 3.0 mi ENE 10.4 mph - N/A Rain Light Rain
11:56 AM 55.0 °F 53.4 °F 94% 30.09 in 5.0 mi ENE 8.1 mph - 0.03 in Rain Light Rain
12:56 PM 54.9 °F 53.2 °F 94% 30.07 in 7.0 mi ENE 9.2 mph - N/A Rain Light Rain
1:15 PM 55.4 °F 53.6 °F 94% 30.07 in 3.0 mi ENE 8.1 mph - N/A Rain Light Rain
1:56 PM 55.0 °F 53.6 °F 95% 30.06 in 4.0 mi NE 6.9 mph - 0.00 in Rain Light Rain
2:46 PM 55.4 °F 55.4 °F 100% 30.06 in 2.0 mi NE 6.9 mph - N/A   Overcast
2:56 PM 55.6 °F 54.5 °F 96% 30.06 in 2.0 mi ENE 8.1 mph - 0.00 in   Overcast
3:56 PM 55.8 °F 54.7 °F 96% 30.04 in 2.0 mi ENE 5.8 mph - N/A   Overcast
4:56 PM 56.5 °F 55.4 °F 96% 30.02 in 2.0 mi ENE 8.1 mph - N/A   Overcast
5:19 PM 57.2 °F 55.4 °F 94% 30.02 in 3.0 mi ENE 8.1 mph - N/A   Overcast
5:27 PM 57.2 °F 55.4 °F 94% 30.02 in 2.8 mi ENE 6.9 mph - N/A   Overcast
5:35 PM 57.2 °F 55.4 °F 94% 30.02 in 2.2 mi ENE 6.9 mph - N/A   Overcast
5:56 PM 56.8 °F 55.9 °F 97% 30.01 in 1.9 mi ENE 5.8 mph - N/A   Overcast
6:56 PM 56.8 °F 55.9 °F 97% 30.01 in 2.0 mi NE 5.8 mph - N/A   Overcast
7:04 PM 57.2 °F 55.4 °F 94% 30.01 in 2.8 mi NE 4.6 mph - N/A   Overcast
7:12 PM 57.2 °F 55.4 °F 94% 30.01 in 3.0 mi ENE 5.8 mph - N/A   Overcast
7:20 PM 57.2 °F 55.4 °F 94% 30.01 in 3.0 mi ENE 5.8 mph - N/A   Overcast
7:52 PM 57.2 °F 55.4 °F 94% 30.00 in 4.0 mi ENE 3.5 mph - N/A   Overcast
7:56 PM 56.8 °F 55.9 °F 97% 30.00 in 3.0 mi ENE 6.9 mph - N/A   Overcast
8:56 PM 57.0 °F 56.5 °F 98% 30.00 in 3.0 mi NE 3.5 mph - N/A   Overcast
9:04 PM 57.2 °F 57.2 °F 100% 30.00 in 2.8 mi Calm Calm - N/A   Overcast
9:36 PM 57.2 °F 57.2 °F 100% 30.01 in 2.5 mi Calm Calm - N/A   Overcast
9:37 PM 57.2 °F 57.2 °F 100% 30.01 in 2.5 mi Calm Calm - N/A   Light Drizzle
9:45 PM 57.2 °F 57.2 °F 100% 30.01 in 3.0 mi Calm Calm - N/A   Light Drizzle
9:46 PM 57.2 °F 57.2 °F 100% 30.01 in 3.0 mi Calm Calm - N/A   Overcast
9:56 PM 57.2 °F 56.7 °F 98% 30.00 in 3.0 mi Calm Calm - 0.00 in   Overcast
10:04 PM 57.2 °F 57.2 °F 100% 30.00 in 2.5 mi Calm Calm - N/A   Overcast
10:12 PM 57.2 °F 57.2 °F 100% 30.00 in 4.0 mi Calm Calm - N/A   Overcast
10:56 PM 57.9 °F 57.6 °F 99% 30.00 in 6.0 mi Calm Calm - N/A   Overcast
11:56 PM 57.7 °F 57.4 °F 99% 30.00 in 9.0 mi Calm Calm - N/A   Overcast